Location: ???????
(30.0771°N, 31.2859°E)
Time: 04:16:32
(UTC+00:00)

Daily predictions for brighter satellites

Satellite Brightness Start Highest point End
(mag) Time Altitude Azimuth Time Altitude Azimuth Time Altitude Azimuth
CZ-4C R/B 4.0 01:37:25 38° S 01:37:25 38° S 01:42:33 10° SSE
SeaSat 1 4.4 01:50:05 10° SSE 01:51:49 22° SSE 01:51:49 22° SSE
CZ-2C R/B 3.9 01:56:20 10° SSE 01:59:21 34° SSE 01:59:21 34° SSE
Atlas Centaur 2 3.0 02:04:48 43° SSE 02:04:48 43° SSE 02:09:45 10° ESE
ATLAS 3B R/B 3.5 02:12:39 41° SSW 02:12:39 41° SSW 02:18:07 10° S
Delta 2 Rocket 4.3 02:17:22 52° ESE 02:17:22 52° ESE 02:20:47 10° ESE
USA 308 4.4 02:19:11 30° ENE 02:19:11 30° ENE 02:21:24 10° NE
Cosmos 1812 Rocket 4.3 02:18:58 49° ESE 02:18:58 49° ESE 02:22:41 10° SSE
USA 267 3.8 02:16:45 10° SSE 02:21:57 39° SW 02:21:57 39° SW
ATLAS CENTAUR R/B 4.4 02:24:29 45° WNW 02:27:44 58° SW 02:46:01 10° SSE
Cosmos 2074 Rocket 3.9 02:24:57 15° N 02:30:10 84° E 02:36:22 10° S
SL-08 R/B 3.5 02:26:46 10° SSE 02:31:40 73° ENE 02:33:25 39° N
Cosmos 2084 Rocket 4.2 02:34:41 41° S 02:34:41 41° S 02:37:29 10° SSE
Delta 7925 Rocket 3.9 02:36:54 40° SSW 02:37:02 40° SSW 02:41:28 10° ESE
USA 306 3.9 02:41:57 33° NNE 02:41:57 33° NNE 02:44:23 10° NNE
Cosmos 2297 Rocket 4.5 02:39:20 10° NNE 02:43:29 21° ENE 02:47:36 10° ESE
IKONOS-2 4.4 02:39:30 10° SSE 02:43:43 88° E 02:44:39 54° N
PSLV R/B 3.4 02:42:54 10° N 02:47:09 87° WNW 02:51:25 10° SSW
ATLAS 3B CENTAUR R/B 2.8 02:49:21 19° ESE 02:49:21 19° ESE 02:50:18 10° E
NOSS 3-1 (A) 4.3 02:42:35 19° NNW 02:48:55 82° ENE 02:58:09 10° SSE
EPKM 3.3 02:47:09 35° WSW 02:49:10 52° SSW 02:52:07 10° ESE
Cosmos 2154 Rocket 3.9 02:45:24 10° N 02:51:37 89° E 02:57:51 10° S
Cosmos 2184 Rocket 3.9 02:47:21 10° NNW 02:53:29 63° W 02:59:43 10° S
NOSS 3-1 (C) 4.4 02:50:33 30° NW 02:54:46 55° WSW 03:03:37 10° S
X-37B 2.9 02:59:35 11° S 02:59:35 11° S 02:59:46 10° S
OBJECT-B 2.7 02:57:26 10° SE 02:58:20 17° E 02:58:20 17° E
SL-27 R/B 2.1 02:59:49 75° WSW 02:59:49 75° WSW 03:03:08 10° S
Cosmos-2242 3.3 03:03:58 41° WNW 03:04:30 43° W 03:08:37 10° SSW
SJ-12 3.8 03:06:31 10° N 03:10:30 59° WNW 03:14:28 10° SSW
COSMO-SKYMED 1 2.9 03:07:47 10° SSE 03:12:04 67° ENE 03:16:22 10° N
DNEPR-1 R/B 4.4 03:08:07 10° SSW 03:12:31 60° ESE 03:17:48 10° NE
Lacrosse 4 Rocket 1.3 03:08:47 10° SSW 03:12:57 67° WNW 03:17:16 10° NNE
Meteor 2-3 Rocket 3.7 03:12:40 10° S 03:18:14 84° E 03:23:50 10° N
USA 276 4.4 03:19:48 12° N 03:19:48 12° N 03:20:13 10° N
USA 307 3.5 03:18:11 30° WNW 03:18:47 31° NW 03:22:23 10° NNE
CRYOSAT 2 4.3 03:14:38 10° N 03:19:25 59° W 03:24:12 10° SSW
Cosmos 1953 Rocket 3.7 03:16:06 10° SSW 03:20:15 48° W 03:24:26 10° N
ARGOS Delta rocket 3.7 03:22:34 10° S 03:27:03 56° W 03:31:24 10° NNW
USA 305 4.1 03:27:10 20° NW 03:27:22 20° NW 03:30:21 10° N
CZ-2C R/B 3.7 03:25:29 10° NNW 03:28:34 24° WNW 03:31:36 10° SW
OAO 3 Rocket 3.1 03:26:14 20° W 03:29:20 66° NNW 03:33:58 10° ENE
Cosmos 1140 Rocket 3.6 03:25:57 10° SSW 03:31:08 84° ESE 03:36:24 10° NNE
Cosmos 1356 Rocket 3.8 03:28:38 10° SSW 03:32:31 40° W 03:36:29 10° N
Cosmos 1939 Rocket 2.8 03:29:05 10° N 03:33:00 59° WNW 03:36:58 10° SSW
Cosmos 1812 4.0 03:30:18 10° N 03:33:54 42° E 03:37:29 10° SSE
Meteor 1-31 Rocket 2.7 03:30:20 10° NNE 03:34:09 86° E 03:37:54 10° S
BREEZE-M (TANK) 1.5 03:33:25 21° NW 03:34:42 67° NE 03:37:04 10° SE
USA 32 4.0 03:30:18 10° SSW 03:35:26 60° W 03:40:37 10° N
Cosmos 1076 Rocket 3.5 03:32:55 10° S 03:37:11 89° E 03:41:26 10° N
Cosmos 407 Rocket 3.6 03:32:31 10° SSW 03:37:50 84° ESE 03:43:12 10° NNE
Cosmos 1992 Rocket 4.0 03:34:07 10° NNW 03:39:16 60° WSW 03:44:23 10° S
Cosmos 2251 Rocket 3.6 03:37:09 10° SSW 03:42:15 54° WNW 03:47:22 10° N
Cosmos 2151 2.9 03:39:01 10° S 03:43:15 90° E 03:47:29 10° N
Cosmos 1980 Rocket 2.8 03:38:51 10° S 03:44:19 61° ESE 03:49:49 10° NNE
Cosmos 1340 4.4 03:45:39 14° W 03:46:04 14° W 03:47:59 10° WSW
Landsat 4 3.7 03:42:32 10° NNE 03:46:15 87° E 03:49:55 10° SSW
GPS 2-04 Rocket1 3.9 03:47:43 10° SW 03:51:15 40° SSE 03:54:50 10° E
Cosmos 2181 Rocket 4.0 03:45:21 10° SSW 03:51:29 65° W 03:57:46 10° N
Atlas Centaur 2 4.1 03:48:05 10° WSW 03:52:30 21° SSW 03:57:36 10° SSE
SJ-7 4.4 03:49:11 10° N 03:53:03 56° WNW 03:56:55 10° SSW
Cosmos 2341 Rocket 4.1 03:51:51 10° NNW 03:57:56 59° W 04:03:59 10° S
CZ-2D R/B 3.4 03:56:03 10° NNE 03:59:53 82° ESE 04:03:42 10° S
SKYMED 2 4.5 03:56:22 10° SSW 04:00:09 29° W 04:03:57 10° NW
CZ-4B R/B 4.3 03:58:11 10° N 04:01:41 34° WNW 04:05:03 10° SW
Cosmos 1842 Rocket 3.5 03:59:26 10° NNW 04:03:42 65° W 04:07:58 10° S
Meteor 1-26 Rocket 4.4 03:58:15 10° N 04:04:17 86° W 04:10:13 10° S
Cosmos 1400 Rocket 3.8 04:03:22 10° SW 04:06:52 27° WNW 04:10:23 10° NNW
Cosmos 1933 3.6 04:04:02 10° NNW 04:07:57 49° W 04:11:52 10° SSW
Cosmos 1441 Rocket 4.5 04:06:04 10° N 04:09:36 42° E 04:13:05 10° SSE
USA 229 DEB 4.5 04:05:19 10° NW 04:12:31 44° WSW 04:19:59 10° S
ATLAS 5 CENTAUR R/B 3.8 04:02:53 10° NW 04:12:36 33° W 04:16:18 10° SSW
USA 229 4.5 04:05:25 10° NW 04:12:37 44° WSW 04:20:06 10° S
Meteor 2-20 Rocket 4.4 04:06:53 10° SSW 04:12:55 71° W 04:19:00 10° N
